Torna al catalogo

ARIANE 40+3 R/B

AttivoPO
NORAD 23608·ROCKET BODY·🇫🇷 France

Lanciato Jul 7, 1995 da Guiana Space Centre

Loading…

Prossimi Passaggi (prossime 24 ore)

TLE

AggiornatoSource: Space-Track

Epoca: Sep 14, 2026, 21:31 UTC

1 23608U 95033D   26257.89685718  .00071765  00000-0  78631-3 0  9997
2 23608  98.2550 131.4626 0006710  82.6968 277.5050 15.63010776696188

Traccia ARIANE 40+3 R/B in tempo reale con AllMySat

Download on the App Store